When you browse on this site, cookies collect data to enhance your experience and personalize the content and advertising you see.
Visit our Privacy Policy to learn more. By continuing to use the site, you agree to this use of cookies and data.
  • In Hungary
  • List of Countries
  • For 7 days
  • Water Temperature
  • Satellite Maps
  • Weather Map
  • News
  • Weather Widgets
  • user-avatar
    Login

    Hourly Weather Altoona

    Today, 17 June, Monday

    Time Temperature Precipitation Wind Pressure Humidity
    00:00 +20°C° 0 mm 1 mps 726 mmHg 97%
    01:00 +19°C° 0 mm 1 mps 726 mmHg 97%
    02:00 +19°C° 0 mm 1 mps 726 mmHg 97%
    03:00 +17°C° 0 mm 0 mps 726 mmHg 97%
    04:00 +17°C° 0 mm 0 mps 726 mmHg 97%
    05:00 +17°C° 0.1 mm 0 mps 727 mmHg 97%
    06:00 +18°C° 0.1 mm 0 mps 727 mmHg 96%
    07:00 +19°C° 0.1 mm 0 mps 728 mmHg 96%
    08:00 +20°C° 0.1 mm 0 mps 728 mmHg 92%
    09:00 +23°C° 0.1 mm 1 mps 728 mmHg 88%
    10:00 +24°C° 0.1 mm 1 mps 729 mmHg 84%
    11:00 +24°C° 1 mm 1 mps 728 mmHg 88%
    12:00 +24°C° 1 mm 1 mps 728 mmHg 92%
    13:00 +23°C° 1 mm 1 mps 728 mmHg 96%
    14:00 +23°C° 0.8 mm 1 mps 728 mmHg 96%
    15:00 +22°C° 0.8 mm 1 mps 728 mmHg 96%
    16:00 +21°C° 0.8 mm 2 mps 728 mmHg 97%
    17:00 +22°C° 0.1 mm 1 mps 728 mmHg 97%
    18:00 +21°C° 0.1 mm 1 mps 727 mmHg 97%
    19:00 +21°C° 0.1 mm 1 mps 727 mmHg 97%
    20:00 +20°C° 0 mm 1 mps 728 mmHg 97%
    21:00 +20°C° 0 mm 1 mps 728 mmHg 98%
    22:00 +19°C° 0 mm 1 mps 728 mmHg 98%
    23:00 +19°C° 0 mm 1 mps 728 mmHg 98%

    Tomorrow, 18 June, Tuesday

    Time Temperature Precipitation Wind Pressure Humidity
    00:00 +19°C° 0 mm 1 mps 727 mmHg 98%
    01:00 +17°C° 0 mm 0 mps 727 mmHg 98%
    02:00 +17°C° 0 mm 0 mps 727 mmHg 98%
    03:00 +17°C° 0 mm 0 mps 727 mmHg 97%
    04:00 +17°C° 0 mm 0 mps 727 mmHg 97%
    05:00 +18°C° 0 mm 0 mps 727 mmHg 97%
    06:00 +18°C° 0 mm 0 mps 727 mmHg 97%
    07:00 +19°C° 0 mm 0 mps 727 mmHg 96%
    08:00 +20°C° 0.2 mm 0 mps 727 mmHg 93%
    09:00 +21°C° 0.2 mm 0 mps 728 mmHg 90%
    10:00 +24°C° 0.2 mm 1 mps 728 mmHg 87%
    11:00 +24°C° 1.4 mm 1 mps 727 mmHg 89%
    12:00 +24°C° 1.4 mm 1 mps 727 mmHg 92%
    13:00 +24°C° 1.4 mm 1 mps 727 mmHg 94%
    14:00 +23°C° 1.4 mm 1 mps 727 mmHg 95%
    15:00 +23°C° 1.4 mm 1 mps 726 mmHg 96%
    16:00 +22°C° 1.4 mm 1 mps 726 mmHg 98%
    17:00 +22°C° 0.2 mm 1 mps 726 mmHg 97%
    18:00 +20°C° 0.2 mm 0 mps 725 mmHg 97%
    19:00 +20°C° 0.2 mm 0 mps 725 mmHg 96%
    20:00 +20°C° 2.2 mm 0 mps 725 mmHg 97%
    21:00 +19°C° 2.2 mm 0 mps 725 mmHg 98%
    22:00 +19°C° 2.2 mm 0 mps 725 mmHg 99%
    23:00 +19°C° 1.6 mm 0 mps 725 mmHg 99%

    Day after tomorrow, 19 June, Wednesday

    Time Temperature Precipitation Wind Pressure Humidity
    00:00 +18°C° 1.6 mm 0 mps 724 mmHg 99%
    01:00 +18°C° 1.6 mm 0 mps 724 mmHg 99%
    02:00 +18°C° 0.8 mm 0 mps 724 mmHg 99%
    03:00 +18°C° 0.8 mm 0 mps 723 mmHg 98%
    04:00 +18°C° 0.8 mm 0 mps 723 mmHg 98%
    05:00 +18°C° 0 mm 0 mps 723 mmHg 98%
    06:00 +19°C° 0 mm 0 mps 723 mmHg 97%
    07:00 +19°C° 0 mm 0 mps 723 mmHg 97%
    08:00 +23°C° 0.1 mm 1 mps 723 mmHg 90%
    09:00 +24°C° 0.1 mm 1 mps 723 mmHg 84%
    10:00 +26°C° 0.1 mm 1 mps 723 mmHg 78%
    11:00 +26°C° 0.5 mm 1 mps 723 mmHg 75%
    12:00 +27°C° 0.5 mm 2 mps 723 mmHg 71%
    13:00 +28°C° 0.5 mm 2 mps 722 mmHg 68%
    14:00 +28°C° 0.3 mm 2 mps 722 mmHg 68%
    15:00 +28°C° 0.3 mm 1 mps 722 mmHg 69%
    16:00 +28°C° 0.3 mm 1 mps 722 mmHg 69%
    17:00 +27°C° 0.3 mm 1 mps 722 mmHg 75%
    18:00 +26°C° 0.3 mm 1 mps 722 mmHg 82%
    19:00 +24°C° 0.3 mm 1 mps 722 mmHg 88%
    20:00 +23°C° 0 mm 1 mps 722 mmHg 90%
    21:00 +21°C° 0 mm 1 mps 722 mmHg 92%
    22:00 +20°C° 0 mm 1 mps 722 mmHg 93%
    23:00 +20°C° 0 mm 1 mps 722 mmHg 94%

    20 June, Thursday

    Time Temperature Precipitation Wind Pressure Humidity
    00:00 +19°C° 0 mm 1 mps 721 mmHg 95%
    01:00 +19°C° 0 mm 1 mps 721 mmHg 96%
    02:00 +17°C° 0.1 mm 0 mps 721 mmHg 96%
    03:00 +17°C° 0.1 mm 0 mps 721 mmHg 96%
    04:00 +17°C° 0.1 mm 0 mps 721 mmHg 96%
    05:00 +20°C° 0 mm 1 mps 721 mmHg 96%
    06:00 +20°C° 0 mm 1 mps 721 mmHg 96%
    07:00 +21°C° 0 mm 1 mps 721 mmHg 96%
    08:00 +22°C° 0.8 mm 1 mps 721 mmHg 96%
    09:00 +22°C° 0.8 mm 1 mps 721 mmHg 96%
    10:00 +22°C° 0.8 mm 1 mps 721 mmHg 96%
    11:00 +24°C° 0.7 mm 1 mps 721 mmHg 89%
    12:00 +25°C° 0.7 mm 2 mps 721 mmHg 81%
    13:00 +27°C° 0.7 mm 3 mps 720 mmHg 74%
    14:00 +26°C° 0.9 mm 3 mps 720 mmHg 80%
    15:00 +25°C° 0.9 mm 3 mps 720 mmHg 86%
    16:00 +23°C° 0.9 mm 4 mps 720 mmHg 92%
    17:00 +22°C° 0.4 mm 3 mps 720 mmHg 93%
    18:00 +23°C° 0.4 mm 2 mps 720 mmHg 93%
    19:00 +23°C° 0.4 mm 2 mps 720 mmHg 94%
    20:00 +22°C° 0.4 mm 1 mps 720 mmHg 95%
    21:00 +21°C° 0.4 mm 1 mps 720 mmHg 96%
    22:00 +18°C° 0.4 mm 0 mps 720 mmHg 97%
    23:00 +18°C° 0.6 mm 0 mps 720 mmHg 98%

    21 June, Friday

    Time Temperature Precipitation Wind Pressure Humidity
    00:00 +20°C° 0.6 mm 1 mps 720 mmHg 98%
    01:00 +20°C° 0.6 mm 1 mps 720 mmHg 98%
    02:00 +19°C° 0.1 mm 1 mps 720 mmHg 98%
    03:00 +19°C° 0.1 mm 1 mps 720 mmHg 98%
    04:00 +19°C° 0.1 mm 1 mps 720 mmHg 98%
    05:00 +19°C° 0 mm 1 mps 721 mmHg 97%
    06:00 +19°C° 0 mm 1 mps 722 mmHg 97%
    07:00 +19°C° 0 mm 1 mps 722 mmHg 96%
    08:00 +20°C° 0 mm 2 mps 723 mmHg 85%
    09:00 +21°C° 0 mm 2 mps 724 mmHg 74%
    10:00 +24°C° 0 mm 3 mps 724 mmHg 63%
    11:00 +25°C° 0 mm 3 mps 725 mmHg 58%
    12:00 +27°C° 0 mm 3 mps 725 mmHg 53%
    13:00 +28°C° 0 mm 4 mps 725 mmHg 48%
    14:00 +27°C° 0 mm 4 mps 725 mmHg 52%
    15:00 +27°C° 0 mm 4 mps 725 mmHg 56%
    16:00 +27°C° 0 mm 4 mps 726 mmHg 60%
    17:00 +25°C° 0 mm 3 mps 726 mmHg 64%
    18:00 +24°C° 0 mm 3 mps 727 mmHg 68%
    19:00 +22°C° 0 mm 3 mps 727 mmHg 72%
    20:00 +20°C° 0 mm 2 mps 727 mmHg 77%
    21:00 +18°C° 0 mm 2 mps 728 mmHg 81%
    22:00 +18°C° 0 mm 1 mps 728 mmHg 86%
    23:00 +16°C° 0 mm 1 mps 728 mmHg 89%

    22 June, Saturday

    Time Temperature Precipitation Wind Pressure Humidity
    00:00 +15°C° 0 mm 1 mps 728 mmHg 92%
    01:00 +14°C° 0 mm 1 mps 728 mmHg 96%
    02:00 +14°C° 0 mm 1 mps 729 mmHg 96%
    03:00 +14°C° 0 mm 1 mps 729 mmHg 96%
    04:00 +12°C° 0 mm 0 mps 729 mmHg 96%
    05:00 +14°C° 0 mm 0 mps 729 mmHg 92%
    06:00 +16°C° 0 mm 1 mps 730 mmHg 88%
    07:00 +19°C° 0 mm 1 mps 731 mmHg 84%
    08:00 +19°C° 0 mm 0 mps 731 mmHg 74%
    09:00 +22°C° 0 mm 0 mps 731 mmHg 64%
    10:00 +25°C° 0 mm 0 mps 731 mmHg 55%
    11:00 +26°C° 0 mm 0 mps 731 mmHg 51%
    12:00 +26°C° 0 mm 0 mps 731 mmHg 48%
    13:00 +29°C° 0 mm 1 mps 731 mmHg 44%
    14:00 +29°C° 0 mm 1 mps 730 mmHg 44%
    15:00 +29°C° 0 mm 1 mps 730 mmHg 44%
    16:00 +29°C° 0 mm 1 mps 730 mmHg 45%
    17:00 +27°C° 0 mm 1 mps 730 mmHg 55%
    18:00 +25°C° 0 mm 1 mps 730 mmHg 65%
    19:00 +23°C° 0 mm 1 mps 730 mmHg 76%
    20:00 +21°C° 0 mm 1 mps 730 mmHg 79%
    21:00 +18°C° 0 mm 0 mps 730 mmHg 82%
    22:00 +17°C° 0 mm 0 mps 730 mmHg 86%
    23:00 +16°C° 0 mm 0 mps 730 mmHg 87%
    Show more